DateTimeUTC,F1_A11,F1_S11,BsB_S11,BsG_S11,BsR_S11,BbsB_S11,BbsG_S11,BbsR_S11,BaB_A11,BaG_A11,BaR_A11,Tu_S11,T_S11,Uu_S11,U_S11,P_S11,T1_A11
2021-11-23T00:00:00Z,00000200,21000000,,,,,,,0000.11,0000.04,-000.19,19.0,26.0,,00.0,0635.6,30.9
2021-11-23T00:01:00Z,00000200,21000000,,,,,,,-000.02,-000.16,0000.24,19.0,26.0,,00.0,0635.6,30.8
2021-11-23T00:02:00Z,00000200,21000000,,,,,,,0000.02,0000.26,-000.13,18.9,26.0,,00.0,0635.6,30.8
2021-11-23T00:03:00Z,00000200,61000000,,,,,,,-000.07,-000.24,-000.22,18.9,26.0,,00.0,0635.6,30.8
2021-11-23T00:04:00Z,00000200,41000000,-000.05,-000.17,-000.26,0000.06,-000.11,0000.01,-000.13,0000.20,0000.25,19.0,25.7,,00.0,0636.5,30.8
2021-11-23T00:05:00Z,00000200,01000000,-000.33,-000.21,-000.38,-000.47,0000.10,-000.03,0000.19,-000.34,-000.24,19.0,25.7,,00.0,0636.6,30.8
2021-11-23T00:06:00Z,00000200,01000000,0000.01,-000.01,0000.02,-000.04,0000.07,0000.21,0000.07,0000.07,-000.00,19.1,25.7,,00.0,0636.6,30.9
2021-11-23T00:07:00Z,00000200,01000000,-000.00,-000.28,-000.23,0000.32,0000.03,-000.05,-000.30,0000.02,0000.10,19.2,25.7,,00.0,0636.6,30.8
2021-11-23T00:08:00Z,00000200,01000000,0000.20,0000.05,-000.24,-000.10,-000.04,-000.21,0000.05,0000.10,0000.00,19.2,25.7,,00.0,0636.7,30.9
2021-11-23T00:09:00Z,00000200,01000000,-000.20,-000.00,-000.18,0000.26,-000.16,-000.16,-000.07,-000.22,-000.23,19.3,25.7,,00.0,0636.7,30.9
2021-11-23T00:10:00Z,00000200,01000000,0000.42,0000.12,-000.14,-000.29,-000.21,-000.34,0000.13,-000.12,0000.10,19.3,25.8,,00.0,0636.6,30.9
2021-11-23T00:11:00Z,00000200,01000000,-001.13,-000.18,-000.20,0000.31,0000.36,-000.12,-000.25,-000.10,0000.10,19.3,25.8,,00.0,0636.6,30.9
2021-11-23T00:12:00Z,00000200,01000000,-000.27,-000.02,-000.18,-000.08,0000.08,-000.04,-000.26,0000.37,-000.52,19.3,25.8,,00.0,0636.6,30.9
2021-11-23T00:13:00Z,00000200,01000000,0000.13,0000.08,-000.35,0000.14,0000.05,0000.08,0000.04,-000.25,0000.21,19.2,25.8,,00.0,0636.6,30.9
2021-11-23T00:14:00Z,00000200,01000000,-000.55,0000.11,0000.09,0000.22,0000.06,0000.23,0000.23,0000.31,0000.21,19.1,25.7,,00.0,0636.7,30.9
2021-11-23T00:15:00Z,00000200,01000000,-000.28,-000.27,-000.34,0000.42,0000.35,-000.15,-000.47,-000.68,-000.05,19.0,25.7,,00.0,0636.7,30.8
2021-11-23T00:16:00Z,00000200,01000000,0000.24,0000.35,-000.44,0000.41,-000.15,-000.09,0000.44,0000.54,-000.37,19.0,25.7,,00.0,0636.7,30.8
2021-11-23T00:17:00Z,00000200,01000000,-000.03,-000.11,0000.12,0000.11,-000.03,0000.58,-000.15,-000.33,0000.25,18.9,25.6,,00.0,0636.7,30.8
2021-11-23T00:18:00Z,00000200,01000000,0000.85,0000.06,0000.11,0000.07,-000.03,-000.23,0000.38,0000.32,-000.16,18.8,25.5,,00.0,0636.7,30.8
2021-11-23T00:19:00Z,00000200,01000000,-000.03,0000.20,-000.01,0000.59,0000.05,-000.06,-000.03,-000.05,-000.00,18.8,25.5,,00.0,0636.7,30.8
2021-11-23T00:20:00Z,00000200,01000000,-000.39,-000.13,-000.11,0000.73,-000.01,-000.20,-000.15,-000.16,0000.04,18.9,25.5,,00.0,0636.7,30.8
2021-11-23T00:21:00Z,00000200,01000000,0000.01,0000.04,-000.10,0000.55,0000.30,0000.41,0000.29,0000.28,0000.18,18.9,25.5,,00.0,0636.7,30.8
2021-11-23T00:22:00Z,00000200,01000000,0000.07,0000.18,-000.34,-000.08,0000.01,0000.19,-000.21,0000.14,-000.19,19.0,25.6,,00.0,0636.7,30.8
2021-11-23T00:23:00Z,00000200,01000000,-000.47,0000.02,-000.37,0000.79,0000.22,0000.01,-000.27,-000.09,0000.32,19.0,25.6,,00.0,0636.7,30.9
2021-11-23T00:24:00Z,00000200,01000000,-000.25,-000.13,-000.47,0000.56,0000.00,-000.27,0000.70,-000.04,-000.12,19.1,25.6,,00.0,0636.7,30.9
2021-11-23T00:25:00Z,00000200,01000000,0000.30,0000.13,-000.24,0000.62,0000.02,-000.12,-000.59,-000.05,0000.20,19.2,25.6,,00.0,0636.7,30.9
2021-11-23T00:26:00Z,00000200,01000000,0000.24,0000.06,-000.06,0000.27,0000.11,-000.13,0000.43,0000.28,0000.06,19.2,25.6,,00.0,0636.7,30.9
2021-11-23T00:27:00Z,00000200,01000000,-000.34,-000.03,0000.23,0000.41,0000.07,0000.22,0000.08,-000.01,-000.05,19.3,25.6,,00.0,0636.7,30.9
2021-11-23T00:28:00Z,00000200,01000000,0000.49,0000.09,0000.08,0000.91,0000.09,0000.06,-000.27,-000.27,-000.05,19.3,25.6,,00.0,0636.8,30.9
2021-11-23T00:29:00Z,00000200,01000000,0000.04,0000.19,-000.37,0000.19,0000.03,0000.16,-000.21,0000.19,-000.14,19.3,25.7,,00.0,0636.8,30.9
2021-11-23T00:30:00Z,00000200,01000000,0000.56,-000.10,-000.06,0000.17,0000.17,-000.23,0000.04,-000.04,0000.16,19.2,25.7,,00.0,0636.8,30.9
2021-11-23T00:31:00Z,00000200,01000000,0000.09,0000.06,0000.00,0000.45,0000.17,0000.29,0000.25,0000.08,0000.26,19.2,25.7,,00.0,0636.8,30.9
2021-11-23T00:32:00Z,00000200,01000000,0000.13,0000.09,-000.17,-000.08,0000.10,0000.10,0000.24,-000.17,-000.35,19.1,25.6,,00.0,0636.8,30.9
2021-11-23T00:33:00Z,00000200,01000000,-000.04,0000.19,-000.16,0000.15,0000.01,0000.14,0000.05,0000.22,0000.02,19.0,25.6,,00.0,0636.8,30.8
2021-11-23T00:34:00Z,00000200,01000000,0000.13,-000.18,-000.25,0000.51,0000.09,-000.33,-000.07,-000.03,0000.11,19.0,25.6,,00.0,0636.8,30.8
2021-11-23T00:35:00Z,00000200,01000000,0000.08,-000.04,0000.04,0000.65,0000.08,0000.08,-000.32,0000.11,0000.04,19.1,25.5,,00.0,0636.8,30.8
2021-11-23T00:36:00Z,00000200,01000000,-000.37,-000.42,-000.58,0000.39,-000.11,-000.20,0000.24,0000.02,-000.14,19.1,25.6,,00.0,0636.9,30.9
2021-11-23T00:37:00Z,00000200,01000000,0000.00,0000.15,-000.03,-000.64,-000.09,0000.16,0000.01,-000.04,0000.18,19.2,25.6,,00.0,0636.9,30.9
2021-11-23T00:38:00Z,00000200,01000000,-000.04,0000.17,-000.12,0000.46,0000.27,-000.26,-000.02,-000.02,0000.21,19.2,25.6,,00.0,0636.9,30.9
2021-11-23T00:39:00Z,00000200,01000000,-000.52,-000.18,0000.42,0000.68,0000.31,0000.46,0000.27,0000.23,0000.02,19.2,25.6,,00.0,0636.8,30.9
2021-11-23T00:40:00Z,00000200,01000000,0000.10,-000.17,-000.31,0000.12,0000.01,-000.06,0000.07,-000.01,-000.10,19.3,25.6,,00.0,0636.9,30.9
2021-11-23T00:41:00Z,00000200,01000000,-000.13,0000.12,0000.07,0000.13,0000.23,0000.13,-000.19,-000.05,0000.07,19.3,25.7,,00.0,0636.9,30.9
2021-11-23T00:42:00Z,00000200,01000000,-000.64,-000.16,-000.10,-000.45,-000.01,-000.07,0000.13,-000.00,0000.04,19.3,25.7,,00.0,0636.9,30.9
2021-11-23T00:43:00Z,00000200,01000000,0000.17,0000.03,0000.28,-000.42,-000.09,0000.16,-000.19,-000.00,-000.27,19.3,25.7,,00.0,0636.9,30.9
2021-11-23T00:44:00Z,00000200,01000000,-001.15,-000.08,-000.20,-000.17,-000.13,0000.19,0000.07,-000.24,0000.17,19.3,25.7,,00.0,0636.9,30.9
2021-11-23T00:45:00Z,00000200,01000000,-000.23,-000.10,-000.28,-000.59,-000.12,0000.03,-000.42,-000.23,-000.38,19.2,25.7,,00.0,0636.9,30.9
2021-11-23T00:46:00Z,00000200,01000000,0000.17,0000.49,-000.25,0000.41,0000.25,-000.20,0000.18,0000.43,0000.22,19.1,25.6,,00.0,0636.9,30.8
2021-11-23T00:47:00Z,00000200,01000000,-000.28,-000.10,-000.20,-000.28,-000.04,-000.28,-000.28,-000.56,-000.29,19.0,25.6,,00.0,0637.0,30.8
2021-11-23T00:48:00Z,00000200,01000000,-000.24,-000.20,-000.37,0000.31,-000.23,0000.26,0000.07,0000.12,0000.02,19.0,25.5,,00.0,0637.0,30.8
2021-11-23T00:49:00Z,00000200,01000000,-000.29,0000.13,-000.26,0000.32,0000.05,-000.04,0000.05,-000.03,-000.29,18.9,25.5,,00.0,0637.0,30.8
2021-11-23T00:50:00Z,00000200,01000000,-000.58,0000.30,-000.08,0000.92,0000.03,-000.23,0000.08,0000.15,0000.17,18.9,25.5,,00.0,0637.1,30.8
2021-11-23T00:51:00Z,00000200,01000000,0000.07,0000.09,-000.07,0000.54,0000.28,-000.07,-000.01,-000.27,0000.25,19.0,25.5,,00.0,0637.2,30.8
2021-11-23T00:52:00Z,00000200,01000000,0000.16,0000.11,-000.42,0000.11,-000.25,-000.27,-000.25,0000.31,-000.31,19.1,25.6,,00.0,0637.2,30.8
2021-11-23T00:53:00Z,00000200,01000000,0000.35,-000.34,-000.37,0000.88,0000.16,0000.01,0000.17,-000.09,0000.01,19.1,25.6,,00.0,0637.2,30.9
2021-11-23T00:54:00Z,00000200,01000000,0000.31,0000.37,-000.21,0000.06,-000.12,0000.09,-000.03,-000.27,0000.09,19.1,25.6,,00.0,0637.3,30.9
2021-11-23T00:55:00Z,00000200,01000000,-000.59,0000.15,0000.13,0000.40,0000.22,-000.41,-000.34,0000.06,-000.22,19.2,25.6,,00.0,0637.3,30.9
2021-11-23T00:56:00Z,00000200,01000000,-000.34,-000.11,-000.26,-000.27,0000.19,0000.03,0000.01,0000.03,-000.23,19.2,25.6,,00.0,0637.3,30.9
2021-11-23T00:57:00Z,00000200,41000000,,,,,,,0001.29,0000.47,0000.80,19.3,25.7,,00.0,0637.3,30.9
2021-11-23T00:58:00Z,00000200,61000000,,,,,,,-000.76,-000.14,-000.30,19.0,25.8,,00.0,0636.4,30.9
2021-11-23T00:59:00Z,00000200,21000000,,,,,,,-000.59,-000.31,-000.22,19.0,25.9,,00.0,0636.4,30.9
